STARLINK-5770 (56026 NORAD) Tracking and Keplerian Element Data

This shows tracking and keplerian element data for the satellite.

Feedback or suggestion? Click here.




ElementValue
Catalog56026
NameSTARLINK-5770
Epoch Orbit720
Epoch Day127.25001157
Epoch Year2023
RAAN291.7092
Inclination42.9997
Eccentricity0.0001411
Argument of Perigee268.6776
Mean Anonmoly279.9576
Mean Motion15.54465904
Decay Rate-0.00887587
L11 56026U 23042AS 23127.25001157 -.00887587 00000+0 -14446-1 0 9990
L22 56026 42.9997 291.7092 0001411 268.6776 279.9576 15.54465904 7207



Live tracking and technical data element details for STARLINK-5770 (NORAD 56026). STARLINK-5770 can be tracked NOW for your location showing map with azimuth and elevation plus other details from your city location.







IsCatalogInMostPopularTable: catalog: 56026, numindb: 1
Update: records affected: 1



GetName: 56026 STARLINK-5770

Hit Count: updated at: Sun, 04 Jun 2023 23:16:42 GMT